Image and video hosting by TinyPic

Jackpot

Texas Poker Multi Jackpot System

Kini Telah hadir Jackpot SUPER ROYAL FLUSH

Kini Telah hadir Jackpot 2000 (khusus table VIP keatas).

Ikutilah global jackpot yang tersedia di system kami, dengan system jackpot terbaru dan pertama di indonesia, anda dapat membeli jackpot dengan harga 100 rupiah saja dan menangkan hadiahnya hingga puluhan juta rupiah.

Jackpot bukanlah suatu keharusan untuk dibeli, namun kami memberikan suatu fitur tambahan untuk member tercinta dari www.b88poker.online.

Terdapat tiga pilihan harga jackpot yang bisa anda beli yaitu :100,500,1000 dan 2000(khusus table VIP Keatas) rupiah.

Hadiah dari Multi jackpot system www.b88poker.online

  1. full house x 10 harga jackpot yang anda beli.
      (contoh:anda membeli 1000 maka:1000 X10 = 10.000)
  2. four of kind x 250 harga jackpot yang anda beli
      (contoh:anda membeli 1000 maka:1000 X250 = 250.000)
  3. Straight flush x 1200
      (contoh:anda membeli 1000 maka:1000 X1200 = 1.200.000)
  4. Royal flush x 10000 harga jackpot yang anda beli
      (contoh:anda membeli 1000 maka:1000 X10000 = 10.000.000)
  5. SUPER ROYAL FLUSH x 30000 harga jackpot yang anda beli
      (contoh:anda membeli 1000 maka:1000 X30000 = 30.000.000)

Kondisi kartu

  1. full house adalah kondisi kartu dimana kartu anda dan kartu tengah dengan total 7 kartu bisa mendapatkan nilai 5 kartu dengan kombinasi 1 tris(three of kind) dan 1 pair, contoh 3 kartu 10 dan 2 kartu 5
  2. Four of kind adalah kondisi kartu dimana kartu anda dan kartu tengah dengan total 7 kartu bisa mendapatkan nilai 5 kartu dengan kombinasi 4 kartu yang sama jumlah dan 1 kartu apapun juga contoh anda mendapatkan 4 buah kartu angka 3 dan 1 kartu apapun.
  3. Staright flush adalah kondisi kartu dimana kartu anda dan kartu tengah dengan total 7 kartu bisa mendapatkan nilai 5 kartu dengan kombinasi seri / staright dengan kembang yang sama contoh : urutan kartu dari angka 5, 6, 7, 8 , 9 10 dengan kembang yg sama misalnya as hati
  4. Royal flush adalah kondisi kartu dimana kartu anda dan kartu tengah dengan total 7 kartu bisa mendapatkan nilai 5 kartu dengan kombinasi seri / staright dengan kembang yang sama tetapi kartu tersebut haruslah dimulai dari 10. contoh 10, Queen, Jack, King dan aces dengan kembang yang sama
  5. Super Royal flush adalah kondisi kartu dimana Kedua kartu anda digabung dengan 3 kartu pertama meja haruslah royal flush. contoh kartu anda 10,Queen kembang sama dan 3 kartu pertama meja adalah Jack, King dan aces dengan kembang yang sama

Demikian adalah penjelasan dari Multi Jackpot www.b88poker.online terima kasih dan selamat bermain salam hoki dari kami

Texas Poker Jackpot Winner

TOP SUPER ROYAL FLUSH
No.TanggalNamaPriceWin
122/09 02:24TAUN101Super Royal flush30,000,000
221/09 14:11ROYALJOZZSuper Royal flush60,000,000
321/09 13:43BA_ATIYOSuper Royal flush6,000,000
421/09 12:23B8EKCBJIYMSuper Royal flush3,000,000
521/09 08:32TUPO25Super Royal flush3,000,000
TOP ROYAL FLUSH
No.TanggalNamaPriceWin
122/09 02:42CS_JPQQRoyal flush2,000,000
222/09 02:40LAZUARDY92Royal flush20,000,000
322/09 02:26NEGREANURoyal flush2,000,000
422/09 02:12HPZB6QZ1ZNRoyal flush2,000,000
522/09 01:56KUPRAANTORoyal flush10,000,000
TOP STRAIGHT FLUSH
No.TanggalNamaPriceWin
122/09 02:43VAMS666Straight Flush2,400,000
222/09 02:40SNP378Straight Flush1,200,000
322/09 02:40RADEN97Straight Flush600,000
422/09 02:38WAWANAJAStraight Flush240,000
522/09 02:38MOVIER4666Straight Flush600,000
LATEST JACKPOT
No.TanggalNamaPriceWin
122/09 02:45RISBERI_99Full House5,000
222/09 02:45SAYANGMAMAFull House2,000
322/09 02:45XIONGYEFull House5,000
422/09 02:45YAI03Full House10,000
522/09 02:45YOUMY26Full House2,000
622/09 02:45ABYANMAHYAFull House5,000
722/09 02:45BIMBIM234Full House20,000
822/09 02:45ALKESOMGFull House2,000
922/09 02:45SBDGAHFJBVFull House2,000
1022/09 02:45ALFATIH930Full House10,000
1122/09 02:45MRHUAFull House2,000
1222/09 02:45AMRICHA9Full House2,000
1322/09 02:45AYASH128Full House2,000
1422/09 02:45NAURA48Full House10,000
1522/09 02:45JANGAR02Full House5,000
1622/09 02:45YARAH88Full House5,000
1722/09 02:45SEMOK245Full House5,000
1822/09 02:45MADOEN168Full House20,000
1922/09 02:45UCHEN20Full House1,000
2022/09 02:45KAKIDA2211Full House2,000
2122/09 02:45MERCEDES17Full House2,000
2222/09 02:45ALFABETFull House2,000
2322/09 02:45CAROLCINDFull House10,000
2422/09 02:45WAKAJI88Full House2,000
2522/09 02:45APRIANIQFull House2,000
2622/09 02:45LABY99Full House5,000
2722/09 02:45AKWO718JAKFull House1,000
2822/09 02:45GAGAK088Full House2,000
2922/09 02:45ADAN009Full House1,000
3022/09 02:45BOY080809Full House1,000
3122/09 02:45IIP99Full House20,000
3222/09 02:45SERICKTOFull House10,000
3322/09 02:45RISMA_APFull House20,000
3422/09 02:45C0707ED0Full House10,000
3522/09 02:45SNP378Full House10,000
3622/09 02:45APEM1Full House5,000
3722/09 02:45C06FFB9FFull House2,000
3822/09 02:45KZLFOOB1TOFull House5,000
3922/09 02:45BLACK_OPSFull House5,000
4022/09 02:45FATMA007Four Of A Kind50,000
4122/09 02:45SIENTAFull House2,000
4222/09 02:45MUHSIDQQFull House5,000
4322/09 02:45RAKA908Full House5,000
4422/09 02:45GOGEK77Full House2,000
4522/09 02:45DEWYANDHAFull House10,000
4622/09 02:45ONA88Full House10,000
4722/09 02:45NIIIIIIISSFull House1,000
4822/09 02:45RIIAAFull House1,000
4922/09 02:45ANOSIUP19Full House5,000
5022/09 02:45BEGOES76Full House1,000

Domino Multi Jackpot System

Ikutilah global jackpot yang tersedia di system kami, dengan system jackpot terbaru dan pertama di indonesia, anda dapat membeli jackpot dengan harga 100 rupiah saja dan menangkan hadiahnya hingga puluhan juta rupiah.

Jackpot bukanlah suatu keharusan untuk dibeli, namun kami memberikan suatu fitur tambahan untuk member tercinta dari www.b88poker.online.

Terdapat tiga pilihan harga jackpot yang bisa anda beli yaitu :100,500 dan 1000 rupiah.

Hadiah dari Multi jackpot system www.b88poker.online

  1. Murni Kecil x 50 harga jackpot yang anda beli.
      (contoh:anda membeli 1000 maka:1000 X 50 = 50.000)
  2. Murni Besar x 50 harga jackpot yang anda beli
      (contoh:anda membeli 1000 maka:1000 X 50 = 50.000)
  3. BALAK x 100 harga jackpot yang anda beli
      (contoh:anda membeli 1000 maka:1000 X 100 = 100.000)
  4. ENAM DEWA x 6666 harga jackpot yang anda beli
      (contoh:anda membeli 1000 maka:1000 X 6666 = 6.666.000)

Demikian adalah penjelasan dari Multi Jackpot www.b88poker.online terima kasih dan selamat bermain salam hoki dari kami

Domino Jackpot Winner

TOP ENAM DEWA
No.TanggalNamaPriceWin
122/09 01:09WISMA92murni enam3,333,000
222/09 01:08ABAY888888murni enam3,333,000
322/09 00:44AMSEO99murni enam3,333,000
422/09 00:43DYCK22murni enam6,666,000
521/09 23:35TEMPE444murni enam666,600
TOP BALAK
No.TanggalNamaPriceWin
122/09 02:44VALETGM2balak100,000
222/09 02:42TEGUH140balak50,000
322/09 02:41SGRT21balak10,000
422/09 02:41Z4K1balak10,000
522/09 02:39WELOS99balak100,000
LATEST JACKPOT
No.TanggalNamaPriceWin
122/09 02:44JONKUR02murni kecil25,000
222/09 02:44BP888002murni kecil50,000
322/09 02:44CACAY305murni besar50,000
422/09 02:44HAER333lucky9950,000
522/09 02:44VALETGM2balak100,000
622/09 02:44DEWAFM9191murni kecil50,000
722/09 02:43DN123murni besar5,000
822/09 02:43LB886763murni besar25,000
922/09 02:43HAMPURA11murni besar50,000
1022/09 02:43TEGUH140murni besar25,000
1122/09 02:43HOKYBLAYmurni besar5,000
1222/09 02:42WENY001murni kecil25,000
1322/09 02:42TEGUH140balak50,000
1422/09 02:42MENYEE2murni besar50,000
1522/09 02:42DADO378murni kecil25,000
1622/09 02:42TMN07murni besar50,000
1722/09 02:41SGRT21balak10,000
1822/09 02:41Z4K1balak10,000
1922/09 02:40BANDUNGTIMmurni kecil25,000
2022/09 02:40LONTAR50murni besar25,000
2122/09 02:40EEHWEH16murni kecil50,000
2222/09 02:39WELOS99balak100,000
2322/09 02:38HAMAD997murni besar5,000
2422/09 02:38GCP0QD2Q3Sbalak100,000
2522/09 02:37LONTAR50murni kecil25,000
2622/09 02:37AGAMHKNmurni besar50,000
2722/09 02:36UJEHOKI99murni besar50,000
2822/09 02:36KIK303balak100,000
2922/09 02:36BEKANTANHSmurni kecil50,000
3022/09 02:36ACIL66murni kecil50,000
3122/09 02:35PRODEO17murni besar5,000
3222/09 02:35WAWANNN5Ymurni besar25,000
3322/09 02:35UJEHOKI99murni kecil50,000
3422/09 02:35JANUARY20murni besar50,000
3522/09 02:34SAWEL007murni kecil50,000
3622/09 02:33MUHIDIN86balak50,000
3722/09 02:33ARIS2608murni kecil5,000
3822/09 02:33ALDIZA99murni kecil50,000
3922/09 02:33FUCK43murni kecil5,000
4022/09 02:33HOKKI0202murni kecil25,000
4122/09 02:32P4C1L0N9murni besar50,000
4222/09 02:32R3J3KI2018murni besar50,000
4322/09 02:31LB886763balak50,000
4422/09 02:31JHONONAR31balak100,000
4522/09 02:30JHONONAR31murni kecil50,000
4622/09 02:29VIRGINJOmurni kecil50,000
4722/09 02:28AGUNG250murni besar5,000
4822/09 02:28PANGSIIT23murni besar50,000
4922/09 02:28SURANDILlucky9910,000
5022/09 02:28GEGER057murni kecil50,000

Ceme Multi Jackpot System

Jackpot dilihat dari gabungan kartu pemain dengan kartu bandar. Bandar harus membeli jackpot sebanyak jumlah player yang sedang duduk. Sebagai contoh bila terdapat 3 pemain duduk bermain, dan bandar memutuskan untuk membeli jackpot Rp 1.000, maka pada periode tersebut bandar akan membeli jackpot sebanyak 3xRp1.000 = Rp3.000.

Jackpot bukanlah suatu keharusan untuk dibeli, namun kami memberikan suatu fitur tambahan untuk member tercinta dari www.b88poker.online.

Terdapat tiga pilihan harga jackpot yang bisa anda beli yaitu :100,500 dan 1000 rupiah.

Hadiah dari Multi jackpot system www.b88poker.online

  1. Murni Kecil x 50 harga jackpot yang anda beli.
      (contoh:anda membeli 1000 maka:1000 X 50 = 50.000)
  2. Murni Besar x 50 harga jackpot yang anda beli
      (contoh:anda membeli 1000 maka:1000 X 50 = 50.000)
  3. BALAK x 200 harga jackpot yang anda beli
      (contoh:anda membeli 1000 maka:1000 X 200 = 200.000)
  4. ENAM DEWA x 6666 harga jackpot yang anda beli
      (contoh:anda membeli 1000 maka:1000 X 6666 = 6.666.000)

Demikian adalah penjelasan dari Multi Jackpot www.b88poker.online terima kasih dan selamat bermain salam hoki dari kami

Ceme Jackpot Winner

TOP ENAM DEWA
No.TanggalNamaPriceWin
122/09 02:18SGANTENG76murni enam666,600
222/09 02:15FUUD1111murni enam666,600
322/09 01:13ALUCARD27murni enam6,666,000
422/09 01:12MRET27murni enam3,333,000
522/09 00:58MARZO11murni enam6,666,000
TOP BALAK
No.TanggalNamaPriceWin
122/09 02:44HILDAN07balak200,000
222/09 02:44XUCAXUCA15balak200,000
322/09 02:44WEROK88balak200,000
422/09 02:44GOTEM008balak200,000
522/09 02:42IYUN27balak200,000
LATEST JACKPOT
No.TanggalNamaPriceWin
122/09 02:45TEKNO_IDmurni besar50,000
222/09 02:45KODIR63murni kecil50,000
322/09 02:45YANNA7murni besar50,000
422/09 02:45PAPAMUDA09murni besar25,000
522/09 02:45OMBINGGGmurni kecil25,000
622/09 02:45INTANN933murni kecil5,000
722/09 02:45PT4DMANJIWmurni kecil5,000
822/09 02:45ABDIBOY250murni kecil5,000
922/09 02:44YUNITA0806murni kecil50,000
1022/09 02:44HILDAN07murni besar50,000
1122/09 02:44YALIMOmurni besar50,000
1222/09 02:44HILDAN07balak200,000
1322/09 02:44XUCAXUCA15balak200,000
1422/09 02:44BALADEWA86murni kecil5,000
1522/09 02:44RONNY4murni kecil50,000
1622/09 02:44ABDUL0111murni kecil5,000
1722/09 02:44WEROK88balak200,000
1822/09 02:44GOTEM008balak200,000
1922/09 02:44QMORAmurni kecil50,000
2022/09 02:43GUNDUL2020murni kecil50,000
2122/09 02:43BOLAA55murni kecil50,000
2222/09 02:43GUNDUL2020murni kecil50,000
2322/09 02:43DREDETANmurni kecil50,000
2422/09 02:43FEIIX2YIJ2murni kecil25,000
2522/09 02:43UDEDmurni kecil50,000
2622/09 02:43SUGENG10murni kecil50,000
2722/09 02:43UGIX1988murni kecil50,000
2822/09 02:43XXL192YA2Omurni kecil5,000
2922/09 02:43KANGHAUWmurni kecil5,000
3022/09 02:43PATEKSmurni besar5,000
3122/09 02:43SINGKUANG9murni kecil25,000
3222/09 02:43TASAKURmurni kecil50,000
3322/09 02:42IYUN27balak200,000
3422/09 02:42DOTITA07murni kecil50,000
3522/09 02:42IBLIS92murni kecil50,000
3622/09 02:42HRP561978balak200,000
3722/09 02:42ADAKODOK22balak20,000
3822/09 02:42ALBERbalak20,000
3922/09 02:42PRO2330murni besar50,000
4022/09 02:42JADUL_P3murni kecil25,000
4122/09 02:42JOJOMILAN9murni besar50,000
4222/09 02:42JONDOL8899balak200,000
4322/09 02:41ADENANSORIbalak200,000
4422/09 02:41KODIR63balak200,000
4522/09 02:41YKB88260balak100,000
4622/09 02:41BIMA_19murni besar25,000
4722/09 02:41JONDOL8899murni kecil50,000
4822/09 02:41KTGSMR99murni kecil50,000
4922/09 02:41AUH26murni kecil25,000
5022/09 02:41JUARAH1murni kecil5,000